Location: Eaglesham
(55.7833°N, 117.9000°W)
Time: 08:30:45
(UTC+00:00)

ISS - Pass Details

Date: 01 December 2021
Orbit: 413 x 422 km, 51.6° (Epoch: 23 January)

Event Time Altitude Azimuth Distance (km) Brightness Sun altitude
Rises 00:29:48 0° 252° (WSW) 2,384 2.3 -8.5°
Reaches altitude 10° 00:31:58 10° 245° (WSW) 1,517 0.8 -8.8°
Maximum altitude 00:35:11 40° 174° (S) 644 -2.6 -9.2°
Drops below altitude 10° 00:38:24 10° 104° (ESE) 1,513 -1.4 -9.6°
Enters shadow 00:38:38 - 103° (ESE) 1,606 -1.3 -9.7°
